Date String (YYYY-MM-DD hh:mm:ss) UTC,Instrument flags,Ambient pressure (hPa),Sample flow (lpm),Bypass flow (lpm),Sample temperature (°C),Ambient temperature (°C),ASC tube jacket temperature (°C),LED temperature (°C),Box temperature (°C),Sample RH (%),Span deviation,Mass concentration (μg/m³),Mass concentration (μg/m³),Mass concentration (μg/m³)
DateTimeUTC,F1_M11,P_M11,Q1_M11,Q2_M11,T1_M11,T2_M11,T3_M11,T4_M11,T5_M11,U1_M11,ZSPAN_M11,X2_M11,X0_M11,X1_M11
2021-11-03 08:00:00,,0832.2,5.00,0.00,24.2,23.3,00.0,33.3,26.0,22.6,0000.0,0002.07,0002.52,0001.92
2021-11-03 08:01:00,,0832.2,5.00,0.00,24.2,23.3,00.0,33.3,26.0,22.6,0000.0,0002.07,0002.52,0001.91
2021-11-03 08:02:00,,0832.2,5.00,0.00,24.2,23.2,00.0,33.3,26.0,22.6,0000.0,0002.05,0002.50,0001.89
2021-11-03 08:03:00,,0832.1,5.00,0.00,24.2,23.2,00.0,33.3,26.0,22.6,0000.0,0002.05,0002.49,0001.89
2021-11-03 08:04:00,,0832.1,5.00,0.00,24.2,23.3,00.0,33.3,26.0,22.5,0000.0,0002.04,0002.48,0001.89
2021-11-03 08:05:00,,0832.1,4.99,0.00,24.2,23.3,00.0,33.3,26.0,22.5,0000.0,0002.04,0002.46,0001.88
2021-11-03 08:06:00,,0832.1,5.00,0.00,24.2,23.3,00.0,33.3,26.0,22.6,0000.0,0002.02,0002.41,0001.88
2021-11-03 08:07:00,,0832.1,5.00,0.00,24.2,23.3,00.0,33.3,26.0,22.6,0000.0,0001.97,0002.30,0001.86
2021-11-03 08:08:00,,0832.2,4.99,0.00,24.2,23.3,00.0,33.3,26.0,22.6,0000.0,0001.96,0002.28,0001.85
2021-11-03 08:09:00,,0832.1,5.00,0.00,24.2,23.3,00.0,33.3,26.0,22.6,0000.0,0001.94,0002.23,0001.84
2021-11-03 08:10:00,,0832.2,4.99,0.00,24.2,23.3,00.0,33.3,26.0,22.6,0000.0,0001.91,0002.16,0001.83
2021-11-03 08:11:00,,0832.1,5.00,0.00,24.2,23.3,00.0,33.3,26.0,22.6,0000.0,0001.87,0002.09,0001.83
2021-11-03 08:12:00,,0832.2,5.00,0.00,24.2,23.3,00.0,33.3,26.0,22.6,0000.0,0001.89,0002.11,0001.85
2021-11-03 08:13:00,,0832.1,4.99,0.00,24.2,23.2,00.0,33.3,26.0,22.6,0000.0,0001.90,0002.14,0001.85
2021-11-03 08:14:00,,0832.2,5.01,0.00,24.2,23.2,00.0,33.3,25.9,22.6,0000.0,0001.91,0002.20,0001.85
2021-11-03 08:15:00,,0832.1,5.00,0.00,24.2,23.2,00.0,33.3,26.0,22.6,0000.0,0001.91,0002.19,0001.85
2021-11-03 08:16:00,,0832.1,4.99,0.00,24.2,23.2,00.0,33.3,26.0,22.7,0000.0,0001.91,0002.20,0001.86
2021-11-03 08:17:00,,0832.1,5.00,0.00,24.2,23.2,00.0,33.3,25.9,22.7,0000.0,0001.95,0002.30,0001.86
2021-11-03 08:18:00,,0832.2,5.00,0.00,24.1,23.2,00.0,33.3,25.9,22.7,0000.0,0001.99,0002.41,0001.88
2021-11-03 08:19:00,,0832.1,4.99,0.00,24.1,23.2,00.0,33.3,25.9,22.7,0000.0,0001.99,0002.44,0001.88
2021-11-03 08:20:00,,0832.2,5.01,0.00,24.2,23.2,00.0,33.3,25.9,22.6,0000.0,0002.00,0002.44,0001.88
2021-11-03 08:21:00,,0832.2,5.00,0.00,24.1,23.2,00.0,33.2,25.9,22.7,0000.0,0002.01,0002.46,0001.88
2021-11-03 08:22:00,,0832.2,5.00,0.00,24.1,23.2,00.0,33.2,25.9,22.7,0000.0,0002.00,0002.47,0001.88
2021-11-03 08:23:00,,0832.3,5.00,0.00,24.1,23.2,00.0,33.2,25.9,22.7,0000.0,0001.99,0002.52,0001.86
2021-11-03 08:24:00,,0832.3,4.99,0.00,24.1,23.2,00.0,33.2,26.0,22.7,0000.0,0001.99,0002.52,0001.86
2021-11-03 08:25:00,,0832.3,5.01,0.00,24.1,23.2,00.0,33.2,25.9,22.7,0000.0,0001.99,0002.52,0001.86
2021-11-03 08:26:00,,0832.3,4.99,0.00,24.1,23.2,00.0,33.2,25.9,22.7,0000.0,0001.99,0002.52,0001.86
2021-11-03 08:27:00,,0832.3,5.00,0.00,24.1,23.2,00.0,33.2,25.9,22.7,0000.0,0001.98,0002.52,0001.85
2021-11-03 08:28:00,,0832.2,5.00,0.00,24.1,23.2,00.0,33.2,25.9,22.7,0000.0,0001.94,0002.41,0001.84
2021-11-03 08:29:00,,0832.2,5.01,0.00,24.1,23.1,00.0,33.2,25.9,22.7,0000.0,0001.91,0002.33,0001.82
2021-11-03 08:30:00,,0832.2,4.99,0.00,24.1,23.2,00.0,33.2,25.9,22.7,0000.0,0001.91,0002.35,0001.81
2021-11-03 08:31:00,,0832.1,5.00,0.00,24.1,23.2,00.0,33.2,25.9,22.7,0000.0,0001.91,0002.35,0001.81
2021-11-03 08:32:00,,0832.2,4.99,0.00,24.1,23.2,00.0,33.2,25.9,22.7,0000.0,0001.90,0002.34,0001.80
2021-11-03 08:33:00,,0832.1,5.00,0.00,24.1,23.2,00.0,33.2,25.8,22.7,0000.0,0001.89,0002.32,0001.79
2021-11-03 08:34:00,,0832.1,5.00,0.00,24.1,23.2,00.0,33.2,25.8,22.7,0000.0,0001.89,0002.28,0001.79
2021-11-03 08:35:00,,0832.1,5.00,0.00,24.1,23.2,00.0,33.2,25.9,22.7,0000.0,0001.88,0002.26,0001.79
2021-11-03 08:36:00,,0832.1,5.01,0.00,24.1,23.2,00.0,33.2,25.9,22.8,0000.0,0001.85,0002.20,0001.77
2021-11-03 08:37:00,,0832.1,4.99,0.00,24.1,23.2,00.0,33.2,25.9,22.8,0000.0,0001.85,0002.21,0001.76
2021-11-03 08:38:00,,0832.1,5.00,0.00,24.1,23.2,00.0,33.2,25.9,22.9,0000.0,0001.88,0002.38,0001.76
2021-11-03 08:39:00,,0832.1,5.00,0.00,24.1,23.2,00.0,33.2,25.9,22.9,0000.0,0001.90,0002.51,0001.76
2021-11-03 08:40:00,,0832.1,5.00,0.00,24.1,23.2,00.0,33.2,25.9,22.9,0000.0,0001.90,0002.50,0001.76
2021-11-03 08:41:00,,0832.0,4.99,0.00,24.1,23.2,00.0,33.2,25.9,22.9,0000.0,0001.90,0002.50,0001.76
2021-11-03 08:42:00,,0832.1,5.00,0.00,24.1,23.2,00.0,33.2,25.9,23.0,0000.0,0001.88,0002.47,0001.75
2021-11-03 08:43:00,,0832.1,5.00,0.00,24.1,23.2,00.0,33.2,25.9,22.9,0000.0,0001.90,0002.48,0001.76
2021-11-03 08:44:00,,0832.1,5.00,0.00,24.1,23.2,00.0,33.2,25.9,22.9,0000.0,0001.89,0002.49,0001.76
2021-11-03 08:45:00,,0832.1,5.01,0.00,24.1,23.2,00.0,33.2,25.9,22.9,0000.0,0001.89,0002.48,0001.76
2021-11-03 08:46:00,,0832.1,5.00,0.00,24.1,23.2,00.0,33.2,25.9,22.9,0000.0,0001.91,0002.51,0001.76
2021-11-03 08:47:00,,0832.1,4.99,0.00,24.1,23.2,00.0,33.2,25.9,23.0,0000.0,0001.94,0002.57,0001.77
2021-11-03 08:48:00,,0832.1,5.00,0.00,24.1,23.2,00.0,33.2,25.9,23.0,0000.0,0001.94,0002.59,0001.77
2021-11-03 08:49:00,,0832.1,5.00,0.00,24.1,23.2,00.0,33.2,25.9,23.1,0000.0,0001.93,0002.47,0001.78
2021-11-03 08:50:00,,0832.1,4.99,0.00,24.1,23.2,00.0,33.1,25.9,23.0,0000.0,0001.93,0002.35,0001.78
2021-11-03 08:51:00,,0832.1,5.00,0.00,24.1,23.2,00.0,33.1,25.9,23.0,0000.0,0001.99,0002.57,0001.78
2021-11-03 08:52:00,,0832.1,4.99,0.00,24.1,23.2,00.0,33.2,25.9,22.9,0000.0,0002.00,0002.57,0001.78
2021-11-03 08:53:00,,0832.1,5.02,0.00,24.1,23.2,00.0,33.1,25.9,22.9,0000.0,0002.02,0002.61,0001.78
2021-11-03 08:54:00,,0832.1,4.98,0.00,24.1,23.2,00.0,33.1,25.9,22.8,0000.0,0002.02,0002.60,0001.77
2021-11-03 08:55:00,,0832.1,5.01,0.00,24.1,23.2,00.0,33.1,25.9,22.9,0000.0,0002.02,0002.62,0001.77
2021-11-03 08:56:00,,0832.1,4.99,0.00,24.1,23.2,00.0,33.1,25.9,23.0,0000.0,0002.04,0002.64,0001.78
2021-11-03 08:57:00,,0832.1,5.01,0.00,24.1,23.2,00.0,33.1,25.9,23.0,0000.0,0002.03,0002.59,0001.78
2021-11-03 08:58:00,,0832.1,5.00,0.00,24.1,23.2,00.0,33.1,25.9,23.0,0000.0,0002.02,0002.56,0001.78
2021-11-03 08:59:00,,0832.1,5.01,0.00,24.1,23.2,00.0,33.1,25.9,23.0,0000.0,0002.04,0002.58,0001.78
